Location: Saratoga Springs
(43.0831°N, 73.7850°W)
Time: 12:28:20
(UTC-04:00)

Vanguard 3 - Pass Details

Date: 25 April 2024
Orbit: 509 x 3233 km, 33.3° (Epoch: 23 May)

Event Time Altitude Azimuth Distance (km) Brightness Sun altitude
Exits shadow 01:23:25 26° 138° (SE) 4,385 10.5 -33.1°
Drops below altitude 10° 01:32:46 10° 98° (E) 4,914 11.1 -32.8°
Sets 01:36:49 0° 87° (E) 5,535 11.6 -32.7°
